CAPE
0 0 0 0 0 0 19 39 64 156 130 103 125 182 223 646 787 844 999 1028 1016 1164 1267 1341 1422 1471 1478 1476 1553 1601 1763 2492 2270 1999 1973 2039 2193 2281 2402 2378 1976 2389 2243 2142
0 0 0 0 0 0 20 37 58 65 113 75 87 70 217 316 700 765 859 973 1055 1168 1224 1284 1308 1261 1398 1473 1539 1693 2094 2594 2462 2178 2103 1986 2211 2167 2300 2308 2357 2431 2384 2495
0 0 0 0 0 0 0 29 41 53 75 123 101 66 162 248 328 439 591 596 656 914 986 857 917 1071 1091 1272 1502 1844 2434 2707 2413 2301 2157 2098 1988 1948 2016 2107 2203 2226 2272 2359
0 0 0 0 0 0 0 0 61 97 81 112 127 70 108 301 397 383 360 374 344 385 572 589 549 773 933 1066 1400 1971 2186 2610 2270 2392 2163 2262 2046 1956 2025 1938 1833 2282 2304 2106
0 0 0 0 0 0 0 0 9 81 99 81 82 95 71 172 362 446 424 393 323 283 333 359 376 534 722 881 1104 1476 2205 2500 2768 2370 2621 2249 2153 2143 2089 1479 1250 1359 1536 1871
0 0 0 0 0 0 0 0 0 9 47 33 16 52 21 116 330 405 305 364 358 314 295 309 325 409 621 728 905 1268 2078 2630 2639 2222 2254 2473 2610 2342 1637 1183 911 812 588 385
0 0 0 0 0 0 0 0 0 0 10 0 0 26 86 74 145 221 287 269 324 327 305 414 481 445 725 980 1141 1345 2023 2370 2410 2115 2379 2393 2537 2505 2074 1489 792 507 301 138
0 0 0 0 0 0 0 0 0 0 0 0 0 0 58 121 117 85 157 278 302 301 415 471 853 899 960 1066 1469 1597 1751 2014 2307 2014 2565 2682 2655 2276 1651 1641 752 274 237 126
0 0 0 0 0 0 0 0 0 0 0 0 0 0 0 7 15 21 58 91 260 412 555 467 526 750 1056 1304 1476 1703 1927 2063 2220 1963 2549 2477 2677 2368 1696 1443 446 253 234 151
0 0 0 0 0 0 0 0 0 0 0 0 0 0 0 0 5 35 40 35 145 382 526 569 830 1040 1225 1244 1559 1714 1948 2126 2174 2001 2255 2147 2145 1905 1667 491 42 99 137 181
0 0 0 0 0 0 0 0 0 0 0 0 0 0 0 0 24 24 30 17 35 183 434 720 1101 1200 1271 1285 1236 1511 1747 2139 2280 2362 2491 2461 1804 1310 48 253 9 1 22 94
0 0 0 0 0 0 0 0 0 0 0 0 0 0 0 0 0 2 0 0 9 101 263 583 842 1064 1238 1517 1214 1317 1689 1794 2104 2248 2352 1932 967 35 422 61 92 30 27 13
0 0 0 0 0 0 0 0 0 0 0 0 0 0 0 0 0 0 0 31 102 198 315 587 815 1384 1640 1674 1868 1668 1697 1626 1695 2071 1690 1342 98 229 48 0 21 2 17 32
0 0 0 0 0 0 0 0 0 0 0 0 0 0 0 0 0 51 53 67 125 250 281 593 903 1407 1718 1977 2117 2094 1804 1655 1805 1905 1588 940 189 379 126 0 0 0 0 0
0 0 0 0 0 0 0 0 0 0 0 0 0 0 0 0 0 172 343 221 200 205 354 759 813 1493 1877 2102 2317 2146 1957 2216 2233 2152 1661 1129 340 411 239 138 6 0 0 1
0 0 0 0 0 0 0 0 0 0 0 0 0 0 0 0 0 0 94 114 257 374 457 640 827 997 1424 1752 1692 1821 1981 2094 2386 1996 1660 1002 460 540 383 184 66 0 0 0
41 0 0 0 0 0 0 0 0 0 0 0 0 0 0 0 0 31 236 185 358 597 678 594 855 1262 1336 1220 1379 1488 1787 2163 2238 1981 1570 667 656 629 432 171 134 77 45 21
79 21 0 0 0 0 0 0 0 0 0 0 0 0 0 0 0 20 83 204 332 431 646 551 462 684 1004 961 1063 1472 1802 2291 2177 1885 1271 843 665 603 474 311 165 210 211 18
139 45 116 39 21 0 0 0 0 0 0 0 0 0 0 0 0 14 0 0 105 174 293 383 362 472 587 918 1288 1726 2078 2206 2120 1769 1223 1002 788 670 451 284 228 361 333 190
27 71 283 11 10 0 3 0 5 8 0 0 0 7 0 0 5 81 0 0 35 163 306 499 568 709 873 797 1314 1743 2014 2076 2031 1828 1366 1040 822 665 396 317 254 336 309 327
547 623 262 73 5 9 5 18 43 65 21 0 0 5 0 49 30 31 23 94 119 138 228 466 810 1085 1227 1248 1146 1580 1878 2053 2023 1746 1315 947 720 544 470 576 566 554 476 422
520 539 455 301 75 22 0 45 182 82 31 0 3 42 31 78 192 349 443 611 701 853 945 1081 1162 1233 1246 1340 1584 1640 1755 1832 1613 1137 1114 931 760 553 526 656 662 700 686 703
392 483 362 146 79 6 0 24 8 4 53 83 423 494 586 506 530 562 590 597 616 677 764 893 1028 1155 1167 1253 1267 1215 464 800 1039 1350 1033 743 576 698 667 676 932 891 871 978
363 219 305 303 65 0 0 0 0 0 0 0 0 0 83 285 414 590 679 660 637 651 741 899 1183 1196 998 894 577 787 773 1092 1155 1065 1005 830 862 798 770 672 673 627 558 509
24 308 104 54 0 1 0 0 0 0 0 0 0 0 27 342 501 714 798 860 776 739 593 535 744 838 500 513 627 624 532 463 863 902 884 796 458 294 4 2 2 0 1 1
14 6 96 70 15 2 0 0 0 0 0 0 0 0 0 3 202 470 592 694 753 691 628 754 638 680 410 207 462 495 343 448 584 529 424 307 161 0 0 0 0 0 0 0
CIN
-0 -0 -0 -0 -0 -0 -56 -37 -34 -104 -123 -115 -96 -101 -112 -124 -112 -98 -74 -68 -72 -75 -71 -39 -30 -30 -33 -34 -37 -50 -38 -26 -22 -32 -22 -9 -5 -1 -1 -4 -16 -5 -7 -9
-0 -0 -0 -0 -0 -0 -99 -34 -25 -101 -130 -112 -121 -123 -92 -163 -155 -143 -122 -103 -85 -70 -47 -36 -39 -41 -41 -49 -53 -52 -39 -25 -34 -26 -26 -14 -8 -3 -2 -1 -2 -7 -7 -10
-0 -0 -0 -0 -0 -0 -0 -53 -44 -31 -96 -101 -82 -100 -94 -184 -184 -206 -193 -173 -152 -105 -85 -98 -96 -79 -70 -63 -61 -51 -46 -32 -47 -36 -19 -18 -17 -15 -8 -2 -0 -5 -10 -12
-0 -0 -0 -0 -0 -0 -0 -3 -70 -38 -40 -31 -85 -24 -66 -101 -177 -216 -227 -247 -234 -237 -191 -167 -172 -139 -114 -99 -80 -59 -62 -47 -54 -42 -29 -20 -10 -0 -0 -5 -6 -1 -8 -15
-0 -0 -0 -0 -0 -0 -0 -0 -94 -44 -31 -25 -81 -34 -19 -186 -149 -165 -212 -229 -257 -235 -230 -217 -216 -184 -149 -129 -119 -88 -72 -62 -41 -48 -32 -31 -12 -3 -2 -37 -55 -45 -38 -20
-0 -0 -0 -0 -0 -0 -0 -0 -0 -98 -25 -27 -25 -32 -20 -83 -132 -116 -151 -203 -232 -251 -254 -224 -211 -188 -167 -174 -166 -129 -88 -67 -59 -61 -60 -39 -17 -11 -41 -86 -92 -88 -124 -157
-0 -0 -0 -0 -0 -0 -0 -0 -0 -0 -34 -0 -0 -50 -97 -46 -87 -106 -82 -187 -215 -237 -214 -207 -224 -257 -217 -213 -202 -169 -129 -90 -76 -104 -78 -73 -52 -28 -51 -91 -134 -169 -198 -225
-0 -0 -0 -0 -0 -0 -0 -0 -0 -0 -0 -0 -0 -0 -126 -82 -79 -152 -151 -138 -193 -239 -232 -257 -228 -230 -234 -245 -217 -203 -200 -157 -125 -162 -88 -53 -52 -63 -123 -100 -164 -237 -218 -228
-0 -0 -0 -0 -0 -0 -0 -0 -0 -0 -0 -0 -0 -0 -0 -165 -159 -146 -124 -172 -215 -235 -241 -286 -277 -280 -236 -246 -247 -265 -240 -194 -163 -175 -93 -87 -57 -57 -120 -165 -287 -290 -272 -254
-0 -0 -0 -0 -0 -0 -0 -0 -0 -0 -0 -0 -0 -0 -0 -0 -85 -105 -120 -161 -195 -213 -265 -310 -255 -279 -255 -252 -271 -269 -250 -253 -212 -191 -150 -132 -126 -138 -117 -206 -444 -320 -286 -237
-0 -0 -0 -0 -0 -0 -0 -0 -0 -0 -0 -0 -0 -0 -0 -0 -72 -59 -74 -148 -164 -224 -288 -296 -278 -296 -283 -267 -281 -291 -277 -236 -200 -197 -164 -133 -185 -202 -271 -340 -148 -546 -357 -265
-0 -0 -0 -0 -0 -0 -0 -0 -0 -0 -0 -0 -0 -0 -0 -0 -0 -5 -8 -0 -285 -310 -355 -354 -335 -321 -277 -268 -268 -306 -280 -268 -254 -244 -210 -228 -313 -650 -306 -237 -366 -440 -345 -286
-0 -0 -0 -0 -0 -0 -0 -0 -0 -0 -0 -0 -0 -0 -0 -0 -0 -0 -0 -170 -344 -475 -440 -424 -365 -335 -310 -309 -308 -303 -311 -269 -270 -243 -289 -293 -704 -437 -420 -0 -342 -244 -262 -268
-0 -0 -0 -0 -0 -0 -0 -0 -0 -0 -0 -0 -0 -0 -0 -0 -0 -160 -248 -312 -330 -505 -494 -465 -419 -377 -365 -339 -356 -351 -334 -288 -270 -274 -291 -364 -558 -438 -459 -0 -0 -0 -0 -0
-0 -0 -0 -0 -0 -0 -0 -0 -0 -0 -0 -0 -0 -0 -0 -0 -0 -86 -94 -181 -381 -476 -479 -509 -445 -406 -431 -412 -392 -400 -361 -311 -259 -255 -267 -333 -552 -453 -428 -371 -368 -0 -0 -53
-0 -0 -0 -0 -0 -0 -0 -0 -0 -0 -0 -0 -0 -0 -0 -0 -0 -0 -226 -224 -306 -369 -434 -468 -427 -483 -468 -462 -484 -441 -395 -340 -259 -273 -267 -393 -537 -440 -398 -412 -404 -0 -0 -0
-83 -0 -0 -0 -0 -0 -0 -0 -0 -0 -0 -0 -0 -0 -0 -0 -0 -197 -213 -245 -259 -293 -338 -405 -447 -479 -499 -468 -504 -478 -403 -312 -266 -269 -306 -497 -451 -405 -416 -488 -414 -342 -322 -305
-118 -90 -0 -0 -0 -0 -0 -0 -0 -0 -0 -0 -0 -0 -0 -0 -0 -277 -358 -276 -304 -290 -303 -426 -443 -476 -488 -449 -446 -426 -372 -306 -289 -292 -350 -399 -403 -348 -323 -349 -388 -265 -194 -284
-151 -215 -93 -51 -46 -0 -0 -0 -0 -0 -0 -0 -0 -0 -0 -0 -0 -285 -0 -0 -465 -546 -607 -563 -483 -471 -565 -477 -450 -423 -358 -295 -262 -279 -339 -341 -344 -315 -336 -351 -345 -171 -114 -119
-304 -271 -65 -194 -65 -27 -29 -36 -517 -160 -0 -0 -0 -222 -0 -0 -155 -148 -0 -0 -583 -570 -600 -611 -599 -582 -509 -539 -471 -393 -331 -282 -262 -274 -317 -360 -337 -288 -317 -279 -227 -145 -90 -51
-24 -95 -85 -196 -128 -24 -440 -565 -552 -104 -54 -0 -0 -463 -0 -335 -426 -809 -823 -749 -721 -736 -767 -689 -536 -459 -492 -496 -456 -350 -299 -288 -280 -287 -337 -368 -391 -306 -266 -165 -99 -74 -58 -32
-35 -42 -46 -99 -57 -31 -57 -450 -246 -458 -370 -0 -286 -610 -674 -717 -678 -634 -635 -607 -599 -548 -532 -519 -556 -555 -548 -482 -342 -307 -275 -237 -263 -323 -380 -354 -299 -274 -207 -129 -75 -44 -24 -0
-48 -72 -126 -132 -12 -235 -0 -548 -652 -66 -604 -570 -398 -399 -488 -521 -463 -438 -469 -486 -487 -483 -512 -457 -435 -448 -426 -372 -340 -330 -547 -399 -276 -198 -306 -348 -306 -190 -176 -113 -28 -9 -4 -0
-143 -190 -158 -88 -36 -0 -0 -0 -0 -0 -0 -0 -0 -0 -573 -618 -456 -365 -348 -403 -423 -456 -447 -382 -281 -277 -349 -404 -486 -403 -400 -282 -191 -226 -241 -200 -130 -93 -85 -83 -39 -18 -18 -29
-98 -93 -148 -93 -0 -8 -0 -0 -0 -0 -0 -0 -0 -0 -606 -466 -458 -397 -294 -293 -324 -350 -434 -499 -423 -349 -450 -402 -453 -356 -325 -316 -306 -185 -111 -95 -136 -175 -0 -0 -0 -0 -0 -64
-0 -0 -42 -33 -122 -29 -0 -0 -0 -0 -0 -0 -0 -0 -0 -45 -408 -350 -338 -283 -261 -292 -356 -322 -402 -370 -538 -474 -352 -281 -299 -291 -208 -120 -116 -115 -127 -0 -0 -0 -0 -0 -0 -0
Wind_Speed
4 9 15 17 15 12 14 15 16 9 10 11 14 12 7 14 17 18 18 19 19 20 20 19 19 17 16 15 15 16 14 14 10 8 8 8 8 7 7 7 9 8 7 6
6 15 14 14 13 9 14 15 14 7 12 12 11 13 10 16 21 20 20 20 20 20 19 18 18 18 18 18 18 16 16 14 12 10 8 6 5 6 6 6 6 7 7 8
13 8 10 12 12 12 12 17 13 14 12 4 6 15 15 13 18 18 20 20 20 21 20 19 20 20 19 19 18 16 16 15 13 13 7 5 3 2 4 6 6 7 8 7
10 8 17 13 18 15 17 14 16 16 12 13 12 11 11 15 18 21 22 21 22 21 20 19 20 20 20 19 18 17 16 15 14 14 11 11 9 9 7 6 5 5 7 7
9 11 14 21 19 15 11 12 18 17 17 9 9 8 12 8 17 23 25 25 25 23 22 22 21 20 20 20 18 17 16 15 15 14 13 11 12 8 5 4 4 4 4 6
14 3 14 15 17 18 10 12 6 4 9 10 17 15 13 10 15 22 22 25 25 24 24 23 22 20 18 18 18 18 17 16 15 15 16 15 13 11 7 6 6 5 5 5
12 14 7 10 18 15 14 16 8 9 8 9 12 13 17 11 19 22 19 24 27 25 24 23 22 20 19 20 20 17 17 17 15 17 17 17 16 14 12 9 8 8 7 6
16 16 17 14 17 14 20 20 11 17 10 10 4 12 14 17 23 13 15 14 20 24 23 23 21 21 21 21 20 18 18 17 17 17 16 14 15 11 8 10 8 8 8 7
15 18 4 11 9 18 15 14 16 8 2 8 7 6 11 13 15 16 21 15 20 23 25 27 25 23 22 19 21 21 19 17 17 17 13 15 14 14 11 12 8 8 6 7
10 8 14 17 13 9 16 15 11 8 17 15 8 5 7 6 13 16 15 18 20 22 23 25 24 23 20 21 21 19 19 21 18 16 15 14 15 13 8 5 6 8 8 7
15 12 6 8 19 21 8 9 4 7 9 15 15 13 8 13 13 12 15 17 19 19 22 23 21 21 21 20 18 19 19 18 17 17 16 15 14 11 8 9 6 8 5 6
14 13 14 14 7 8 24 20 18 11 12 5 10 14 5 14 13 10 14 13 10 15 19 20 20 21 20 19 19 21 20 20 20 17 16 14 11 13 15 9 6 7 5 5
10 9 11 14 16 9 9 17 20 18 14 17 15 11 4 6 9 14 17 14 7 11 16 16 18 19 19 19 17 18 19 22 19 16 16 14 14 16 14 13 13 5 4 2
8 6 11 16 19 15 16 12 16 19 16 15 16 17 10 10 12 15 16 14 11 10 14 15 16 18 17 17 17 16 17 17 16 16 15 15 16 15 15 14 14 13 11 12
8 10 16 20 21 23 23 22 21 19 22 20 17 18 17 15 17 17 15 9 10 11 15 17 18 16 16 16 15 15 15 14 15 15 15 16 17 16 16 17 16 14 14 12
7 5 8 15 25 23 27 26 23 23 24 20 22 16 12 14 10 12 15 12 13 15 17 18 16 16 17 17 16 14 14 15 14 15 16 16 18 18 19 17 16 15 14 15
7 6 5 8 17 20 22 25 24 20 21 21 20 14 11 12 15 16 14 14 16 16 16 16 18 15 14 15 13 14 13 14 15 15 15 18 18 18 19 17 16 16 16 13
8 5 3 3 4 10 15 23 25 24 20 18 15 11 11 12 8 9 9 14 16 13 12 12 11 12 12 12 12 12 13 14 14 14 15 16 17 17 16 17 19 17 13 15
7 7 4 3 7 7 5 5 13 22 22 14 16 15 11 5 4 8 5 9 12 9 7 9 10 11 11 12 12 13 13 12 12 14 15 16 17 18 18 18 17 14 12 13
11 8 6 3 5 7 2 2 4 2 14 13 11 10 9 8 8 5 2 5 8 9 9 11 12 11 11 11 13 13 13 13 14 14 15 17 16 16 17 17 16 11 11 12
6 4 2 6 5 6 7 9 2 10 4 3 8 9 11 7 2 4 7 8 8 10 14 11 11 12 10 11 12 12 13 15 15 14 14 14 15 15 14 12 11 11 10 12
7 6 2 4 4 12 14 2 6 5 5 8 10 16 20 16 14 14 13 12 12 11 12 12 12 12 10 9 7 7 7 4 7 10 15 13 12 11 11 12 10 10 10 12
6 4 9 10 5 11 9 2 3 5 8 11 13 13 20 23 18 15 14 13 12 11 10 10 12 12 9 8 7 7 6 8 10 12 11 11 11 11 10 11 11 9 11 9
4 2 6 8 4 7 5 10 10 13 13 12 12 13 13 18 18 14 11 12 10 9 10 8 10 11 8 6 4 6 12 10 11 8 8 10 10 10 7 6 6 6 6 7
4 2 10 5 10 9 3 6 6 13 14 15 14 15 15 17 14 15 10 10 8 7 7 7 6 6 8 4 10 5 6 7 12 8 8 8 7 8 7 6 3 0 3 2
6 3 2 8 13 2 5 6 9 13 11 12 16 17 17 15 14 15 13 9 7 7 5 4 7 7 11 7 7 7 7 8 10 8 7 5 5 6 5 5 6 13 8 8
Wind_Direction
175 197 199 193 196 215 191 207 192 171 170 189 221 253 219 196 207 204 203 203 205 210 210 209 211 212 212 214 211 211 207 210 204 201 209 220 224 228 239 244 252 243 244 234
173 216 203 199 203 198 202 211 203 150 162 199 210 243 241 203 216 209 205 209 211 214 213 213 215 211 210 211 213 210 213 210 211 210 212 218 211 229 241 239 230 227 228 214
209 206 194 200 200 197 212 208 189 194 179 160 193 245 239 218 219 217 219 218 216 217 213 212 214 212 209 212 210 210 211 213 214 214 204 180 160 183 206 217 217 215 221 216
213 203 192 197 212 203 208 214 202 184 176 227 199 261 228 221 213 219 221 218 219 217 218 216 211 212 210 211 208 208 209 211 214 206 207 207 214 221 218 206 206 208 207 197
190 189 192 200 207 201 224 181 195 194 197 207 214 244 258 201 219 220 220 221 220 218 214 215 213 212 211 209 206 206 206 210 211 204 209 203 218 224 209 181 183 204 184 200
211 197 196 200 203 198 146 125 94 144 201 221 219 216 249 207 219 227 222 221 222 217 216 217 214 210 211 207 206 203 202 208 205 206 208 207 210 210 200 186 189 192 186 180
202 217 214 195 199 198 197 171 168 192 198 226 228 217 245 245 232 235 231 217 217 212 215 215 210 204 206 204 201 200 200 209 205 207 208 209 207 205 199 189 195 184 190 196
203 216 208 197 208 188 198 199 202 206 205 213 179 220 237 237 250 248 253 237 219 216 212 215 206 202 202 202 200 199 199 205 205 205 208 208 203 206 197 198 194 200 195 198
199 223 202 205 191 179 177 209 215 221 21 225 190 241 274 249 249 245 240 224 215 213 211 210 206 206 205 198 201 200 199 202 207 206 204 204 199 207 202 191 189 193 195 190
181 207 207 198 195 188 206 175 189 213 217 229 203 235 233 221 244 241 239 224 227 217 209 209 208 205 203 202 203 199 197 202 202 203 206 203 203 198 176 204 168 195 189 205
188 216 156 176 207 199 171 183 210 235 233 230 234 232 211 232 244 246 242 231 232 218 210 205 204 201 203 204 202 202 202 200 200 201 199 200 197 175 139 168 199 153 182 183
201 207 219 215 205 240 222 214 208 214 191 225 254 224 185 232 240 243 251 250 249 219 207 204 200 200 202 203 203 204 203 202 202 199 196 192 164 149 166 187 188 151 153 167
165 211 213 230 238 201 225 226 223 229 245 213 229 221 197 230 242 248 254 263 244 212 202 196 195 198 199 201 203 205 206 211 207 197 194 184 169 170 168 168 146 143 151 173
177 177 217 224 231 233 227 226 217 221 225 222 228 237 210 237 244 257 244 248 240 210 200 197 194 200 199 200 201 205 212 211 205 199 193 182 176 172 170 163 147 166 146 209
207 213 215 227 228 215 222 228 218 217 235 231 226 219 221 224 235 236 240 255 218 201 200 199 199 198 195 197 199 203 206 200 197 188 186 184 180 175 169 173 170 174 187 211
195 224 218 243 230 224 221 220 225 222 226 230 237 221 218 230 237 243 246 230 224 210 207 207 206 197 196 195 195 196 198 196 188 183 189 179 179 175 184 182 184 182 200 210
193 197 177 242 231 218 231 223 220 226 223 210 218 222 213 227 228 229 229 228 228 218 211 202 201 193 191 192 183 188 186 180 179 185 181 181 185 187 189 185 185 198 213 220
169 141 217 292 155 213 236 224 218 213 214 216 243 243 224 238 255 259 239 238 233 228 228 206 198 191 181 177 177 171 174 176 178 179 180 189 190 194 190 190 196 203 214 221
221 134 161 226 242 271 234 169 213 214 234 225 234 233 243 243 205 245 233 232 229 205 183 192 186 175 171 168 161 160 163 165 171 178 187 194 195 192 187 197 200 204 210 229
100 102 143 110 257 252 187 56 357 298 226 186 213 226 211 147 203 206 313 194 168 162 150 152 147 146 147 147 153 148 154 164 182 183 189 189 197 198 197 199 203 205 212 232
181 112 144 122 251 274 3 324 235 187 185 193 199 203 142 148 12 77 93 90 96 114 116 118 121 112 110 130 142 153 166 186 189 184 179 186 184 198 201 199 201 196 197 220
160 154 83 106 206 256 0 260 243 26 72 107 133 126 109 107 97 86 81 77 75 83 93 96 86 85 86 103 131 148 176 149 160 171 171 168 179 190 193 191 203 212 209 216
172 192 134 130 312 326 320 353 63 73 72 67 86 94 110 102 90 86 84 75 72 65 73 86 96 98 86 97 108 133 140 151 154 195 158 152 178 182 179 189 203 203 204 217
59 115 102 119 9 322 347 73 80 78 73 68 59 60 72 89 97 84 78 78 71 61 61 64 92 89 89 77 61 143 140 167 165 151 153 169 172 179 183 184 196 201 206 213
4 265 126 79 105 292 56 81 65 85 82 72 64 63 70 81 72 89 73 65 74 79 81 80 87 106 99 118 91 110 142 167 116 137 163 155 145 141 114 91 49 293 93 329
340 351 160 160 160 240 185 136 104 95 80 74 74 61 50 67 81 78 71 54 48 56 50 92 112 102 75 99 121 149 157 112 121 143 151 149 143 129 136 136 111 49 28 23